Regional Weather Roundup
Issued by NWS

Home | Current Version | Previous Version | Text Only | Print | Product List | Glossary Off
Versions: 1 2 3 4 5 6 7 8 9 10 11 12 13 14 15 16 17 18 19 20 21 22 23 24 25 26 27 28 29 30 31 32 33 34 35 36 37 38 39 40 41 42 43 44 45 46 47 48 49 50

000
ASUS45 KBOI 202110
RWRID
WEATHER ROUNDUP FOR IDAHO
NATIONAL WEATHER SERVICE BOISE ID
300 PM MDT WED AUG 20 2014

NOTE: "FAIR" INDICATES FEW OR NO CLOUDS BELOW 12000 FEET
WITH NO SIGNIFICANT WEATHER AND/OR OBSTRUCTIONS TO VISIBILITY

IDZ012-014-202200-
SOUTHWEST IDAHO


CITY           SKY/WX    TMP DP  RH WIND       PRES   REMARKS
BOISE          MOSUNNY   83  48  29 N8        29.85F
CALDWELL       MOSUNNY   84  52  32 NE3       29.84F
MOUNTAIN HOME  PTSUNNY   83  47  28 NW7       29.84F
$$

IDZ016-017-202200-
SOUTHCENTRAL IDAHO


CITY           SKY/WX    TMP DP  RH WIND       PRES   REMARKS
BURLEY         PTSUNNY   82  51  34 SW12      29.87F
JEROME         CLOUDY    79  51  37 W7        29.90F
TWIN FALLS     CLOUDY    80  54  40 NW12      29.89F
$$

IDZ019>023-202200-
SOUTHEAST IDAHO


CITY           SKY/WX    TMP DP  RH WIND       PRES   REMARKS
IDAHO FALLS    MOSUNNY   80  46  30 SW13G20   29.92F
POCATELLO      MOSUNNY   80  45  28 CALM      29.91F
REXBURG        SUNNY     75  51  43 S10G18    29.93F
$$

IDZ006-010-011-018-031-032-202200-
CENTRAL IDAHO MOUNTAINS


CITY           SKY/WX    TMP DP  RH WIND       PRES   REMARKS
MCCALL         CLOUDY    71  42  35 S9        29.93F
HAILEY         PTSUNNY   73  50  43 S12       29.97F
STANLEY          N/A     57  46  66 N5        30.05R
SALMON         CLOUDY    66  48  52 N6        29.90F
CHALLIS        LGT RAIN  67  48  50 W6        29.94F
$$

IDZ002-004-006-007-026-202200-
NORTHERN IDAHO


CITY           SKY/WX    TMP DP  RH WIND       PRES   REMARKS
LEWISTON       PTSUNNY   81  54  39 N12       29.80F
LOWELL           N/A     83  56  39 CALM      29.79F
COEUR D`ALENE  CLOUDY    73  54  49 SE10      29.84R
MULLAN PASS    CLOUDY    58  50  75 CALM      30.00S
$$


USA.gov is the U.S. government's official web portal to all federal, state and local government web resources and services.